カタログに戻る

STARLINK-32360

運用中通信VLEO
NORAD 61007·PAYLOAD·🇺🇸 United States

打ち上げ Sep 5, 2024 から Cape Canaveral Space Force Station

Loading…

次のパス (今後24時間)

TLE

最新Source: CelesTrak SupGP

元期: Sep 14, 2026, 22:11 UTC

1 61007C 24158T   26257.92479167  .00040707  00000+0  12025-2 0  2577
2 61007  53.1583 247.5982 0001508  83.5539 348.2162 15.34375521    18

AllMySatでSTARLINK-32360をリアルタイム追跡

Download on the App Store